This is the latest recevied weather packets stored in our database for station/object LU8FJH-13. If no packets are shown the sender has not sent any weather packets the latest 1 day(s).
| Time | Temp. | Humidity | Pressure | Rain* | Wind** | Luminosity | Snow |
|---|---|---|---|---|---|---|---|
| 1778018461 | 25° C | 82% | 1010 hPa | 0 mm | 0 m/s | - | - |
| 1778017921 | 25° C | 82% | 1010 hPa | 0 mm | 0 m/s | - | - |
| 1778017381 | 25° C | 81% | 1009.9 hPa | 0 mm | 0 m/s | - | - |
| 1778016841 | 25° C | 80% | 1010 hPa | 0 mm | 0 m/s | - | - |
| 1778016300 | 25° C | 80% | 1009.8 hPa | 0 mm | 0 m/s | - | - |
| 1778015761 | 25° C | 80% | 1009.9 hPa | 0 mm | 0 m/s | - | - |
| 1778015221 | 25.56° C | 80% | 1010 hPa | 0 mm | 0 m/s | - | - |
| 1778014681 | 25.56° C | 79% | 1009.9 hPa | 0 mm | 0 m/s | - | - |
| 1778014141 | 25.56° C | 79% | 1010 hPa | 0 mm | 0 m/s | - | - |
| 1778013600 | 25.56° C | 78% | 1009.9 hPa | 0 mm | 0 m/s | - | - |
| 1778013060 | 25.56° C | 78% | 1009.8 hPa | 0 mm | 0.45 m/s, 45° | - | - |
| 1778012520 | 26.11° C | 77% | 1009.7 hPa | 0 mm | 0 m/s | - | - |
| 1778011980 | 26.11° C | 75% | 1009.7 hPa | 0 mm | 0.89 m/s, 63° | - | - |
| 1778011440 | 26.11° C | 74% | 1009.6 hPa | 0 mm | 0 m/s | - | - |
| 1778010900 | 26.67° C | 74% | 1009.8 hPa | 0 mm | 0.89 m/s, 51° | - | - |
| 1778010361 | 26.67° C | 72% | 1009.7 hPa | 0 mm | 0 m/s | - | - |
| 1778009820 | 27.78° C | 70% | 1009.6 hPa | 0 mm | 0.45 m/s, 324° | - | - |
| 1778009281 | 28.33° C | 69% | 1009.8 hPa | 0 mm | 0 m/s | - | - |
| 1778008740 | 27.78° C | 73% | 1009.9 hPa | 0 mm | 0 m/s | - | - |
| 1778008200 | 27.22° C | 72% | 1010.2 hPa | 0 mm | 0 m/s | - | - |
| 1778007660 | 27.22° C | 71% | 1010.1 hPa | 0 mm | 0 m/s | - | - |
| 1778007120 | 27.22° C | 69% | 1009.9 hPa | 0 mm | 0.45 m/s, 305° | - | - |
| 1778006580 | 27.78° C | 68% | 1010.1 hPa | 0 mm | 0 m/s | - | - |
| 1778006040 | 28.33° C | 66% | 1010.2 hPa | 0 mm | 0 m/s | - | - |
| 1778005500 | 28.33° C | 66% | 1010.2 hPa | 0 mm | 0 m/s | - | - |
* Rain latest hour (hover to see other rain measurements)
** Current wind speed in m/s (hover to see current wind gust speed)